QPF
0.00 0.00 0.00 0.00 0.00 0.01 0.01 0.01 0.03 0.02 0.03 0.02 0.01 0.00 0.00 0.00 0.00 0.00 0.00 0.00 0.00 0.00
0.00 0.00 0.00 0.00 0.01 0.01 0.01 0.01 0.00 0.00 0.00 0.00 0.00 0.00 0.00 0.00 0.00 0.00 0.00 0.00 0.00 0.00
0.00 0.00 0.00 0.00 0.00 0.00 0.00 0.00 0.00 0.00 0.00 0.00 0.00 0.00 0.00 0.00 0.00 0.00 0.00 0.00 0.00 0.00
0.00 0.00 0.00 0.00 0.00 0.00 0.00 0.00 0.00 0.00 0.00 0.00 0.00 0.00 0.00 0.00 0.00 0.00 0.00 0.00 0.00 0.00
0.00 0.00 0.00 0.00 0.00 0.00 0.00 0.00 0.00 0.00 0.00 0.00 0.00 0.00 0.00 0.00 0.00 0.00 0.00 0.00 0.00 0.00
0.00 0.00 0.00 0.00 0.00 0.00 0.00 0.00 0.00 0.00 0.00 0.00 0.00 0.00 0.00 0.00 0.00 0.00 0.00 0.00 0.00 0.00
0.00 0.00 0.00 0.00 0.00 0.00 0.00 0.00 0.00 0.00 0.00 0.00 0.00 0.00 0.00 0.00 0.00 0.00 0.00 0.00 0.00 0.00
0.00 0.00 0.00 0.00 0.00 0.00 0.00 0.00 0.00 0.00 0.00 0.00 0.00 0.00 0.00 0.00 0.00 0.00 0.00 0.00 0.00 0.00
0.00 0.00 0.00 0.00 0.00 0.00 0.00 0.00 0.00 0.00 0.00 0.00 0.00 0.00 0.00 0.00 0.00 0.00 0.00 0.00 0.00 0.00
0.00 0.00 0.00 0.00 0.00 0.00 0.00 0.00 0.00 0.00 0.00 0.00 0.00 0.00 0.00 0.00 0.00 0.00 0.00 0.00 0.00 0.00
0.00 0.00 0.00 0.00 0.00 0.00 0.00 0.00 0.00 0.00 0.00 0.00 0.00 0.00 0.00 0.00 0.00 0.00 0.00 0.00 0.00 0.00
0.00 0.00 0.00 0.00 0.00 0.00 0.00 0.00 0.00 0.00 0.00 0.00 0.00 0.00 0.00 0.00 0.00 0.00 0.00 0.00 0.00 0.00
0.00 0.00 0.00 0.00 0.00 0.00 0.00 0.00 0.00 0.00 0.00 0.00 0.00 0.00 0.00 0.00 0.00 0.00 0.00 0.00 0.00 0.00
0.00 0.00 0.00 0.00 0.00 0.00 0.00 0.00 0.00 0.00 0.00 0.00 0.00 0.00 0.00 0.00 0.00 0.00 0.00 0.00 0.00 0.00
MSLP
1007.65 1007.96 1008.57 1009.28 1010.08 1010.84 1011.37 1011.79 1012.22 1012.88 1013.28 1013.59 1013.88 1014.25 1014.49 1014.71 1015.01 1015.31 1015.44 1015.61 1015.89 1016.19
1008.01 1008.46 1008.89 1009.48 1010.15 1010.77 1011.46 1012.01 1012.33 1012.83 1013.15 1013.49 1013.60 1013.71 1013.94 1014.35 1014.61 1014.80 1015.09 1015.37 1015.66 1015.91
1008.46 1008.83 1009.29 1009.80 1010.43 1011.09 1011.79 1012.11 1012.55 1012.83 1013.03 1013.23 1013.45 1013.70 1014.02 1014.49 1014.70 1014.87 1015.10 1015.32 1015.57 1015.67
1008.83 1009.21 1009.58 1010.07 1010.73 1011.15 1011.49 1012.00 1012.18 1012.73 1012.92 1013.15 1013.46 1013.72 1014.15 1014.41 1014.77 1014.95 1015.14 1015.29 1015.51 1015.65
1009.08 1009.30 1009.73 1010.13 1010.60 1011.07 1011.57 1011.87 1012.36 1012.68 1013.13 1013.20 1013.38 1013.61 1014.02 1014.47 1014.85 1014.96 1014.98 1015.06 1015.65 1015.57
1008.93 1009.17 1009.63 1010.22 1010.65 1011.04 1011.47 1011.95 1012.31 1012.59 1012.75 1013.37 1013.70 1013.87 1014.12 1014.46 1014.58 1014.92 1015.01 1014.96 1015.10 1014.76
1008.86 1009.26 1009.74 1010.40 1010.84 1011.37 1011.74 1012.01 1012.22 1012.57 1013.00 1013.26 1013.63 1014.04 1014.27 1014.61 1014.69 1014.82 1015.16 1015.31 1015.15 1015.25
1009.27 1009.80 1010.32 1010.72 1011.12 1011.50 1011.91 1012.62 1012.68 1012.66 1013.16 1013.50 1013.40 1013.94 1014.30 1014.52 1014.76 1014.84 1014.81 1014.89 1015.06 1015.39
1009.53 1010.05 1010.57 1010.95 1011.19 1011.41 1011.68 1012.12 1012.81 1012.99 1013.08 1013.21 1013.74 1013.98 1014.79 1015.28 1015.18 1015.11 1015.08 1014.99 1014.77 1014.74
1009.59 1010.01 1010.45 1010.68 1011.13 1011.56 1011.86 1012.21 1012.73 1012.91 1013.16 1013.34 1013.63 1014.11 1014.45 1014.85 1015.18 1015.19 1015.22 1015.27 1014.62 1014.80
1009.69 1010.31 1010.73 1011.21 1011.43 1011.85 1012.22 1012.43 1012.33 1012.68 1012.91 1013.32 1013.62 1014.02 1014.53 1014.92 1015.01 1015.07 1014.80 1014.84 1014.89 1014.77
1010.14 1010.54 1011.15 1011.57 1011.74 1011.82 1011.98 1012.21 1012.48 1012.75 1013.09 1013.31 1013.80 1014.03 1014.42 1014.57 1014.54 1014.24 1013.95 1013.93 1014.33 1014.29
1011.12 1011.15 1010.96 1011.62 1011.73 1012.05 1012.49 1012.55 1012.55 1012.66 1012.95 1013.23 1013.40 1013.59 1013.86 1014.00 1013.89 1013.43 1013.23 1013.13 1013.22 1013.47
1011.58 1011.41 1011.27 1011.65 1011.86 1011.98 1012.27 1012.29 1012.66 1012.74 1013.06 1013.35 1013.49 1013.58 1013.56 1013.30 1013.10 1013.16 1013.14 1013.25 1012.97 1012.73
Thickness
5721 5719 5715 5709 5703 5697 5693 5692 5689 5683 5679 5674 5669 5665 5662 5660 5657 5654 5653 5650 5646 5642
5709 5706 5703 5699 5694 5689 5684 5680 5678 5674 5670 5667 5665 5662 5659 5655 5652 5650 5646 5641 5635 5630
5695 5693 5690 5687 5681 5677 5672 5670 5666 5664 5661 5658 5653 5650 5647 5641 5638 5635 5631 5627 5622 5617
5680 5679 5679 5676 5671 5668 5666 5661 5658 5653 5649 5646 5642 5639 5634 5630 5626 5622 5618 5613 5607 5601
5670 5669 5666 5664 5661 5658 5653 5650 5646 5641 5636 5634 5631 5627 5621 5615 5609 5606 5602 5597 5588 5585
5661 5660 5656 5652 5649 5646 5642 5637 5633 5630 5627 5618 5613 5610 5606 5601 5598 5592 5587 5584 5579 5577
5652 5649 5646 5641 5637 5631 5628 5624 5621 5617 5611 5607 5601 5594 5589 5585 5581 5575 5569 5563 5560 5554
5637 5634 5630 5626 5622 5617 5613 5605 5604 5601 5595 5589 5587 5580 5573 5568 5562 5557 5553 5546 5541 5535
5625 5620 5614 5610 5609 5605 5599 5595 5586 5583 5580 5576 5567 5559 5548 5540 5540 5536 5534 5530 5527 5521
5611 5606 5601 5598 5593 5586 5582 5578 5572 5567 5560 5555 5548 5539 5532 5525 5521 5517 5512 5505 5507 5499
5596 5590 5585 5578 5574 5569 5565 5560 5558 5550 5545 5538 5531 5521 5510 5502 5498 5495 5492 5486 5480 5476
5576 5571 5564 5558 5556 5554 5549 5544 5540 5534 5526 5519 5508 5498 5489 5483 5482 5480 5477 5470 5462 5458
5551 5551 5546 5543 5541 5535 5528 5524 5521 5516 5507 5498 5491 5480 5470 5465 5464 5466 5462 5458 5448 5439
5530 5532 5531 5526 5522 5518 5511 5507 5499 5493 5487 5477 5468 5461 5453 5447 5445 5441 5436 5433 5430 5423